Wetbulb
64.25 63.78 62.95 62.04 61.26 57.80 56.62 57.06 57.73 58.22 58.83 60.09 61.59 61.44 60.64 61.18 61.63 61.25 61.84 64.64 64.28 64.01 64.21 64.26 63.81 63.38 62.88 62.58 62.62 62.82 62.86 62.59 62.77 63.00 63.37 64.19 65.06 65.63 66.22 67.03 67.73 68.34 69.03
63.27 62.16 61.04 59.36 57.64 57.00 57.19 57.10 56.89 56.88 56.78 57.13 57.24 58.37 58.64 59.05 59.62 60.39 60.80 61.73 63.65 62.86 62.86 62.92 62.78 62.55 62.36 61.80 61.54 61.29 61.07 61.22 61.51 61.76 62.12 62.25 62.71 63.25 63.84 64.79 65.74 66.88 67.23
61.76 60.13 58.76 56.81 56.44 56.73 56.60 56.75 56.41 56.65 56.69 56.75 56.49 56.69 56.98 57.07 57.54 58.29 59.38 59.59 59.75 61.59 61.14 60.80 61.07 61.16 61.09 60.91 60.38 60.18 59.94 59.84 60.17 60.33 60.70 60.95 61.45 61.86 62.05 62.46 63.46 64.66 65.82
60.16 57.80 56.76 56.21 56.48 56.37 56.44 56.14 56.16 55.93 56.00 56.16 55.90 56.17 56.30 56.18 56.27 56.56 57.07 57.61 58.02 58.35 58.67 59.07 59.45 59.69 59.59 59.81 59.73 58.87 58.87 58.79 58.70 58.86 58.87 59.09 59.47 59.87 60.28 60.75 61.54 62.19 63.43
58.34 57.11 56.51 56.47 56.49 56.44 56.39 56.36 56.34 56.22 55.31 55.41 55.30 55.95 56.57 56.54 56.11 55.51 55.97 56.49 56.21 57.16 56.68 55.25 56.59 57.81 58.93 58.82 58.60 58.51 57.69 57.60 57.24 57.53 57.77 57.92 58.05 58.27 58.78 59.35 59.85 60.60 61.46
57.40 56.57 56.80 56.22 56.38 56.30 56.36 56.48 56.17 56.61 56.05 55.59 54.00 54.85 55.93 56.42 56.68 56.79 55.60 55.52 55.98 56.19 57.17 56.73 56.88 55.83 56.26 56.31 57.13 57.70 57.38 57.35 57.35 57.08 57.16 57.30 57.06 57.16 57.65 57.86 58.52 59.25 59.79
55.05 53.63 56.27 55.49 56.67 56.54 56.55 56.81 56.49 55.80 55.45 56.18 54.86 54.41 55.04 56.11 55.58 55.37 55.68 55.59 55.06 55.81 56.06 56.12 55.87 55.87 54.66 54.40 54.90 55.18 55.73 56.11 56.31 56.20 56.36 56.78 57.07 56.93 56.71 56.83 57.01 57.97 58.51
54.34 54.71 54.61 54.94 56.41 56.72 56.91 56.48 56.49 55.46 55.86 55.79 54.05 54.22 51.00 52.12 53.35 53.86 54.56 53.93 53.93 54.35 53.66 53.41 53.92 54.00 54.63 54.24 52.14 51.25 52.12 53.57 54.85 55.47 55.60 55.81 56.18 56.46 56.59 56.31 55.91 56.60 57.44
54.02 50.90 51.93 53.87 55.91 56.36 55.76 56.19 56.53 56.43 54.00 53.95 54.23 52.95 49.97 48.41 52.20 53.39 53.06 53.59 53.45 53.58 53.63 53.41 53.19 53.20 53.24 53.35 51.60 51.44 51.06 51.83 52.61 53.40 53.99 54.53 55.10 55.57 56.09 56.90 56.35 55.29 56.10
52.83 52.79 52.07 51.50 52.51 53.28 53.46 54.54 54.76 55.70 55.12 52.82 53.99 53.83 54.17 53.77 50.22 49.85 52.67 52.72 52.97 52.36 52.57 52.58 52.11 52.16 52.07 51.73 49.54 47.76 49.00 50.16 50.80 51.77 52.83 53.48 53.86 54.43 54.96 55.29 56.35 55.93 55.10
54.86 54.17 53.22 52.43 50.50 51.64 52.82 53.56 53.82 54.68 55.21 54.13 53.52 53.39 52.98 53.33 53.46 51.31 49.38 50.80 51.09 50.84 52.17 52.14 51.82 51.42 51.59 51.01 50.48 49.01 47.78 49.20 49.58 50.44 51.54 52.52 53.18 53.44 53.97 54.43 55.34 56.20 55.31
54.49 54.32 53.82 52.83 51.72 51.79 52.40 52.84 53.62 54.30 54.67 54.66 54.68 54.50 53.51 52.47 51.81 50.79 49.06 49.84 50.72 51.83 51.52 51.46 51.34 51.36 51.22 50.08 48.57 46.66 47.71 48.29 48.88 49.63 50.02 50.60 51.74 52.26 52.92 53.65 54.19 55.50 56.34
53.77 53.85 53.58 52.71 52.07 52.68 53.19 54.10 54.48 54.00 54.89 54.61 54.60 54.07 54.34 53.12 52.78 52.12 51.31 50.27 48.96 50.58 49.62 51.00 51.17 50.58 49.21 48.64 48.77 46.03 47.49 48.04 48.96 49.42 49.48 49.93 50.63 51.19 51.71 52.33 53.25 54.05 55.53
54.75 54.83 53.57 53.50 51.82 51.45 51.87 52.44 52.85 52.67 52.98 53.16 53.05 52.90 52.64 52.97 52.15 51.71 50.10 48.60 45.90 46.28 46.98 46.56 49.27 48.44 48.21 48.15 48.32 46.69 47.69 48.27 47.67 48.33 48.80 49.42 49.98 50.48 51.19 51.59 52.13 52.63 53.58
54.16 53.94 53.69 53.33 50.41 50.17 49.85 49.28 51.08 51.33 51.87 52.02 52.14 51.36 51.19 50.39 49.94 49.79 48.92 47.55 45.05 41.92 43.08 45.70 44.90 47.38 47.54 47.70 47.91 47.43 47.45 48.09 47.88 48.05 48.54 49.07 49.55 50.02 50.44 50.94 51.14 51.85 52.38
54.19 51.83 51.04 48.92 48.12 48.05 47.85 47.33 48.25 49.23 49.20 48.64 49.01 48.29 48.14 47.81 47.42 47.33 47.30 46.69 45.92 43.63 40.61 44.62 44.93 46.16 46.76 46.31 47.42 46.98 46.95 47.13 47.26 47.61 47.66 47.85 48.26 48.77 49.36 49.79 50.00 50.37 50.95
50.89 49.89 47.98 46.62 45.69 45.98 46.78 47.26 48.63 48.28 47.65 46.80 46.43 46.82 46.22 46.41 46.60 46.54 46.49 45.82 44.86 44.20 41.13 43.17 44.98 45.98 45.40 45.22 45.83 46.72 46.83 46.87 46.71 47.06 46.83 47.27 47.59 47.96 48.57 48.89 49.18 49.72 50.04
48.21 48.01 47.35 47.29 46.83 47.40 47.83 48.18 46.85 46.06 45.75 45.55 45.90 45.04 44.79 44.55 44.83 45.72 45.35 44.56 44.21 44.53 42.61 40.85 43.52 43.99 44.41 45.34 44.95 44.44 44.67 45.44 45.44 46.35 46.95 46.99 47.28 47.47 47.89 48.26 48.54 49.09 49.34
46.99 46.88 47.30 46.64 46.37 46.16 46.14 46.50 46.45 45.91 45.70 45.19 44.40 43.98 44.35 45.10 44.53 44.98 44.82 44.24 44.56 44.18 44.13 42.22 41.41 43.79 44.13 44.50 43.47 44.23 44.26 45.10 46.02 46.41 46.44 46.53 46.62 47.08 47.45 47.62 48.12 48.48 48.78
45.96 45.81 45.71 45.55 45.43 45.33 45.28 45.43 45.54 45.31 45.12 45.27 45.46 45.20 45.07 44.79 44.46 44.79 44.70 44.52 44.26 43.77 43.60 41.48 39.33 39.90 42.43 43.78 43.51 41.24 40.84 42.97 42.30 43.57 45.35 46.41 46.42 46.34 46.99 47.59 47.89 47.95 48.08
45.88 45.86 45.51 45.39 45.41 45.31 45.61 46.36 46.12 45.51 45.41 45.26 45.60 45.54 45.61 45.89 46.13 46.03 44.88 44.35 44.19 42.48 40.91 39.00 38.94 39.20 40.88 40.85 39.13 41.66 41.19 42.13 41.80 42.64 43.24 44.64 44.74 45.93 46.66 46.72 46.30 46.23 46.07
45.17 45.08 44.53 44.20 44.12 44.18 44.37 44.97 45.38 45.73 45.78 45.29 44.72 45.21 45.54 45.58 45.33 46.06 46.40 46.70 45.68 41.15 40.33 40.53 40.64 39.80 40.54 39.71 41.18 40.47 40.27 39.20 36.61 44.32 42.35 42.67 43.94 44.02 45.51 46.47 46.08 45.55 45.59
44.62 44.07 43.77 43.62 43.40 43.94 43.83 44.57 44.55 45.06 44.10 43.92 43.40 43.14 42.79 43.06 43.19 42.82 43.78 44.08 44.02 44.51 44.15 42.07 39.51 39.73 38.91 40.60 40.81 40.09 40.22 40.07 39.08 41.84 41.34 39.04 42.67 42.07 44.82 45.20 46.06 45.57 45.59
43.81 43.44 43.44 43.42 43.06 43.01 41.68 42.71 42.99 43.30 42.98 42.56 42.21 41.76 41.23 41.08 41.50 41.23 41.13 40.86 41.22 41.83 41.50 41.14 40.73 41.31 41.82 42.41 42.48 42.46 41.46 42.12 43.71 43.09 42.01 37.72 41.79 41.96 43.91 44.52 46.20 45.57 45.32
43.37 42.79 42.51 41.71 40.98 41.28 40.06 40.81 41.16 40.93 40.50 40.50 40.95 41.08 40.84 40.54 41.68 42.32 40.01 39.82 40.06 40.81 43.51 44.66 44.84 45.10 45.42 45.48 44.88 42.91 40.75 38.72 36.31 38.44 42.26 40.16 41.37 40.72 42.56 43.06 45.05 46.40 45.10
41.68 41.14 40.14 40.24 39.07 39.42 39.68 39.81 40.18 39.74 39.05 39.44 40.32 39.88 40.36 40.35 41.55 42.01 40.08 39.36 38.06 39.15 40.30 40.91 41.49 42.56 43.40 42.86 44.36 43.54 42.65 38.25 38.42 37.23 41.25 39.51 39.42 39.28 36.59 42.28 43.38 43.84 43.61
MSLP
1017.87 1018.21 1018.62 1019.03 1019.40 1019.72 1020.00 1020.41 1020.62 1020.79 1020.65 1020.57 1020.62 1020.63 1020.63 1020.71 1020.80 1021.47 1022.16 1022.39 1022.26 1022.12 1022.11 1022.09 1022.09 1022.16 1022.24 1022.16 1022.09 1022.19 1022.03 1021.96 1021.96 1021.90 1021.70 1021.69 1021.54 1021.32 1021.16 1020.87 1020.63 1020.37 1020.20
1017.96 1018.50 1018.83 1019.29 1019.72 1019.87 1020.19 1020.29 1020.54 1020.83 1021.10 1021.10 1021.39 1021.39 1021.40 1021.45 1021.69 1021.84 1022.31 1022.86 1022.82 1022.65 1022.61 1022.63 1022.63 1022.64 1022.70 1022.78 1022.74 1022.70 1022.72 1022.51 1022.48 1022.50 1022.37 1022.24 1022.19 1021.98 1021.93 1021.64 1021.36 1021.06 1020.81
1018.23 1018.68 1018.91 1019.39 1019.80 1020.11 1020.24 1020.43 1020.79 1020.89 1021.20 1021.38 1021.54 1021.87 1021.91 1021.90 1022.04 1022.34 1022.62 1022.86 1023.31 1023.44 1023.17 1023.07 1023.03 1023.07 1023.09 1023.10 1023.16 1023.18 1023.23 1023.22 1023.09 1022.99 1022.93 1022.80 1022.82 1022.56 1022.42 1022.24 1022.03 1021.81 1021.44
1018.44 1018.77 1019.03 1019.32 1019.91 1020.30 1020.63 1020.79 1021.05 1021.09 1021.29 1021.57 1021.86 1022.12 1022.15 1022.38 1022.25 1022.59 1023.05 1023.15 1023.15 1023.35 1023.80 1023.80 1023.65 1023.61 1023.58 1023.51 1023.46 1023.50 1023.56 1023.66 1023.55 1023.45 1023.47 1023.36 1023.09 1023.04 1022.93 1022.72 1022.55 1022.39 1022.17
1018.48 1018.91 1019.16 1019.69 1020.11 1020.52 1020.69 1020.91 1021.08 1021.18 1021.47 1021.69 1021.96 1022.34 1022.53 1022.55 1022.55 1022.72 1022.86 1023.48 1023.83 1023.79 1023.80 1024.43 1024.34 1024.15 1024.04 1024.05 1023.99 1023.85 1023.85 1023.85 1023.86 1023.89 1023.92 1023.77 1023.62 1023.40 1023.20 1023.17 1023.01 1022.71 1022.56
1018.69 1019.17 1019.35 1019.88 1020.27 1020.63 1020.79 1020.93 1021.09 1021.19 1021.35 1021.66 1021.97 1022.37 1022.68 1022.87 1022.98 1022.86 1022.89 1023.21 1023.59 1023.82 1023.93 1024.13 1024.07 1024.37 1024.46 1024.32 1024.18 1024.05 1024.22 1024.23 1024.22 1024.18 1024.07 1023.92 1023.86 1023.71 1023.58 1023.41 1023.31 1023.18 1022.93
1019.18 1019.78 1019.84 1020.08 1020.26 1020.45 1020.74 1021.03 1021.11 1021.38 1021.63 1021.79 1022.03 1022.43 1022.72 1022.85 1022.78 1023.02 1023.20 1023.05 1023.57 1023.83 1024.06 1024.15 1024.04 1023.98 1024.23 1024.64 1024.64 1024.53 1024.42 1024.47 1024.47 1024.46 1024.35 1024.23 1023.95 1023.77 1023.68 1023.59 1023.51 1023.38 1023.24
1019.24 1019.64 1020.39 1020.36 1020.42 1020.44 1020.82 1021.27 1021.74 1021.37 1021.67 1022.02 1021.64 1021.67 1021.99 1022.67 1022.70 1022.97 1023.16 1023.21 1023.29 1023.65 1023.85 1023.87 1023.87 1024.14 1024.30 1024.38 1025.04 1024.99 1024.82 1024.67 1024.66 1024.53 1024.45 1024.23 1024.07 1023.79 1023.58 1023.43 1023.46 1023.50 1023.41
1019.58 1020.28 1020.60 1020.78 1020.71 1020.85 1021.26 1021.61 1021.86 1021.59 1021.52 1022.39 1022.44 1021.96 1021.84 1021.61 1022.03 1022.75 1022.92 1023.08 1023.37 1023.43 1023.58 1023.90 1024.13 1024.27 1024.42 1024.47 1024.70 1024.74 1025.02 1024.89 1024.74 1024.68 1024.54 1024.37 1024.04 1023.88 1023.68 1023.41 1023.23 1023.35 1023.43
1020.05 1020.23 1021.22 1021.61 1021.66 1021.95 1021.64 1021.82 1022.36 1022.08 1021.93 1021.84 1022.33 1022.36 1022.01 1021.73 1021.53 1021.91 1022.66 1023.04 1023.27 1023.17 1023.35 1023.81 1024.14 1024.46 1024.48 1024.64 1024.95 1025.18 1025.18 1025.09 1024.88 1024.78 1024.69 1024.51 1024.31 1023.99 1023.77 1023.51 1023.23 1023.02 1023.18
1019.58 1018.75 1021.09 1021.97 1022.19 1022.39 1021.97 1021.93 1022.11 1021.81 1022.06 1021.71 1021.83 1022.07 1022.08 1021.95 1021.85 1022.11 1021.66 1022.43 1023.47 1023.53 1023.49 1023.67 1024.02 1024.29 1024.40 1024.59 1024.58 1024.73 1025.25 1025.15 1024.98 1024.78 1024.67 1024.61 1024.49 1024.17 1023.84 1023.55 1023.27 1022.86 1022.73
1019.50 1020.22 1020.42 1021.86 1022.50 1022.53 1022.62 1022.55 1022.27 1021.90 1021.83 1021.79 1021.71 1021.85 1021.80 1021.80 1021.77 1022.35 1022.27 1022.02 1022.35 1022.68 1023.46 1023.62 1023.77 1023.84 1024.07 1024.34 1024.55 1024.96 1025.01 1025.02 1024.90 1024.73 1024.57 1024.48 1024.32 1024.10 1023.82 1023.55 1023.22 1022.92 1022.40
1019.04 1019.52 1020.53 1021.56 1022.43 1022.11 1022.10 1022.36 1021.93 1021.96 1021.71 1021.96 1021.95 1021.92 1022.03 1022.17 1022.35 1022.57 1022.26 1022.20 1022.33 1022.44 1023.21 1023.30 1023.23 1023.61 1023.87 1023.98 1024.03 1024.70 1024.69 1024.76 1024.74 1024.58 1024.48 1024.27 1024.13 1023.96 1023.72 1023.43 1023.13 1022.88 1022.41
1019.69 1019.98 1020.87 1021.71 1021.95 1021.83 1022.18 1022.18 1022.35 1022.25 1021.96 1022.25 1022.58 1022.41 1022.37 1022.31 1022.67 1022.87 1022.85 1022.77 1022.58 1022.49 1022.67 1023.02 1022.77 1023.39 1023.46 1023.60 1023.95 1024.64 1024.27 1024.13 1024.36 1024.32 1024.15 1024.02 1023.83 1023.59 1023.38 1023.31 1022.99 1022.79 1022.58
1019.81 1020.20 1020.83 1021.39 1021.90 1022.07 1022.12 1022.40 1022.47 1022.49 1022.26 1022.24 1022.38 1022.53 1022.58 1022.93 1023.08 1023.17 1023.29 1023.19 1022.99 1022.53 1021.99 1022.07 1022.59 1022.94 1023.33 1023.62 1023.70 1023.94 1023.79 1023.55 1023.75 1023.85 1023.80 1023.67 1023.49 1023.14 1023.12 1022.87 1022.78 1022.64 1022.43
1019.81 1020.35 1021.15 1021.88 1022.36 1022.30 1022.26 1022.35 1022.52 1022.75 1022.62 1022.54 1022.75 1022.76 1022.98 1023.23 1023.44 1023.41 1023.47 1023.50 1023.41 1023.31 1022.63 1022.60 1022.65 1023.15 1023.28 1023.59 1023.65 1023.75 1023.46 1023.42 1023.25 1023.27 1023.29 1023.22 1023.13 1022.84 1022.73 1022.61 1022.41 1022.33 1022.15
1020.08 1020.68 1021.37 1021.95 1022.13 1022.26 1022.45 1022.41 1022.71 1022.65 1022.52 1022.71 1022.92 1023.06 1023.33 1023.41 1023.42 1023.43 1023.68 1023.74 1023.74 1023.70 1023.40 1022.99 1023.09 1023.22 1023.60 1023.55 1023.17 1023.28 1023.01 1022.65 1022.42 1022.52 1022.72 1022.68 1022.52 1022.37 1022.28 1022.11 1022.06 1022.03 1021.92
1020.43 1020.94 1021.43 1021.96 1022.21 1022.43 1022.24 1022.27 1022.46 1022.58 1022.63 1022.81 1023.17 1023.37 1023.38 1023.58 1023.47 1023.43 1023.63 1023.69 1023.76 1023.54 1023.79 1023.41 1023.30 1023.11 1023.14 1023.28 1023.29 1023.07 1022.79 1022.49 1022.14 1021.87 1021.84 1022.03 1021.96 1021.84 1021.75 1021.65 1021.64 1021.60 1021.47
1020.76 1020.95 1021.48 1021.88 1022.23 1022.38 1022.49 1022.56 1022.61 1022.81 1022.91 1023.08 1023.33 1023.32 1023.35 1023.21 1023.06 1023.02 1023.36 1023.47 1023.43 1023.42 1023.61 1023.54 1023.16 1023.14 1022.88 1022.99 1023.04 1022.67 1022.38 1021.84 1021.50 1021.53 1021.53 1021.43 1021.28 1021.24 1021.19 1021.13 1021.03 1020.93 1020.96
1021.37 1021.55 1021.95 1022.23 1022.49 1022.56 1022.85 1023.11 1023.07 1023.11 1023.16 1023.14 1023.19 1023.23 1023.03 1022.89 1022.90 1022.98 1022.82 1022.82 1022.97 1022.99 1022.93 1023.01 1023.41 1023.38 1022.98 1022.47 1022.53 1022.48 1022.20 1021.68 1021.56 1021.35 1020.95 1020.64 1020.65 1020.65 1020.65 1020.57 1020.48 1020.41 1020.49
1022.20 1022.25 1022.52 1022.83 1022.95 1023.01 1023.38 1023.37 1023.33 1023.27 1023.12 1022.99 1022.84 1022.87 1022.82 1022.88 1023.08 1023.11 1023.06 1022.77 1022.77 1022.81 1022.85 1023.08 1023.16 1022.83 1022.36 1022.11 1022.40 1022.04 1021.65 1021.18 1021.15 1021.03 1020.55 1019.87 1019.63 1019.59 1019.56 1019.78 1019.90 1019.91 1020.09
1022.50 1022.82 1023.00 1023.11 1023.24 1023.38 1023.93 1023.76 1023.68 1023.15 1022.89 1022.78 1022.55 1022.71 1022.64 1022.62 1022.70 1022.81 1022.63 1022.44 1022.44 1022.68 1022.58 1022.41 1022.20 1022.05 1021.88 1021.85 1021.85 1021.64 1021.29 1020.76 1020.52 1020.01 1019.98 1019.52 1019.46 1019.24 1019.09 1018.93 1019.06 1019.48 1019.71
1022.85 1022.97 1023.16 1023.30 1023.41 1023.47 1023.99 1023.81 1023.74 1023.28 1023.35 1023.15 1023.00 1022.99 1022.79 1022.49 1022.52 1022.35 1022.13 1022.09 1022.04 1021.96 1021.89 1021.81 1021.57 1021.27 1021.14 1021.09 1021.02 1020.78 1020.69 1020.42 1019.97 1019.72 1019.80 1019.56 1019.54 1019.14 1018.82 1018.65 1018.75 1019.07 1019.21
1023.15 1023.28 1023.41 1023.68 1023.69 1023.77 1024.38 1024.21 1024.01 1023.40 1023.16 1023.22 1023.09 1022.91 1022.66 1022.40 1022.23 1022.20 1022.01 1021.71 1021.46 1021.24 1021.33 1021.47 1021.15 1020.76 1020.37 1020.14 1020.07 1019.93 1019.61 1019.58 1019.35 1019.67 1019.98 1019.36 1019.17 1018.66 1018.47 1018.41 1018.24 1018.34 1018.57
1023.46 1023.77 1023.88 1023.98 1023.91 1023.88 1024.34 1024.36 1024.25 1023.78 1023.20 1022.88 1022.68 1022.55 1022.40 1022.19 1021.93 1021.85 1021.85 1021.48 1021.24 1020.99 1020.73 1020.37 1020.12 1019.91 1019.72 1019.72 1019.67 1019.59 1019.15 1019.25 1019.21 1019.33 1019.15 1018.93 1018.28 1018.03 1017.71 1017.48 1017.49 1017.44 1017.62
1024.16 1024.18 1024.03 1024.01 1024.18 1024.05 1024.19 1024.44 1024.31 1023.78 1023.09 1022.72 1022.59 1022.46 1022.47 1022.25 1021.90 1021.59 1021.46 1021.20 1020.75 1020.23 1019.81 1019.45 1019.35 1019.46 1019.57 1019.38 1019.06 1018.86 1018.71 1018.65 1018.48 1018.24 1018.16 1018.16 1017.93 1018.09 1017.60 1017.12 1016.84 1016.89 1017.06
Wind_Speed
8 7 7 7 6 8 7 7 8 7 7 8 7 8 9 10 10 8 7 12 15 17 18 19 19 19 20 20 21 20 20 20 20 20 20 20 19 20 20 20 20 19 16
7 7 7 7 7 7 8 8 8 7 7 7 7 7 8 8 9 9 8 9 13 15 16 17 17 18 18 19 19 19 19 19 19 19 19 19 19 19 18 19 19 19 17
9 9 8 8 8 8 10 8 8 7 6 6 8 6 6 8 8 8 6 7 9 13 14 14 15 15 16 16 16 17 17 17 18 18 18 18 18 18 18 18 18 18 17
10 9 8 8 8 8 7 7 7 7 7 6 6 5 6 5 7 7 6 5 4 5 9 11 11 12 12 13 14 14 14 15 15 15 16 16 16 16 16 17 16 16 16
11 9 8 8 10 7 7 7 6 7 6 5 5 5 4 4 5 4 7 5 4 3 4 8 9 10 10 11 12 12 12 12 12 13 14 15 14 14 14 15 15 15 15
10 8 8 9 9 7 7 7 8 6 6 6 5 4 4 3 3 3 4 4 5 4 2 3 1 6 9 9 9 11 10 11 12 11 12 12 12 13 13 12 13 13 14
9 5 6 7 8 8 9 8 7 8 5 5 5 4 3 2 4 4 3 3 4 3 2 1 0 1 4 8 11 10 10 10 11 12 12 13 13 12 11 10 11 11 12
10 8 4 6 8 7 8 8 7 6 4 5 4 3 4 5 4 4 4 4 6 4 4 4 3 3 2 3 6 7 8 9 10 12 13 13 14 14 12 10 8 9 11
9 5 4 3 6 6 7 8 8 9 6 4 5 2 3 5 4 4 5 5 5 5 4 3 3 1 1 2 3 2 7 9 10 11 12 12 12 13 14 14 11 7 9
9 11 10 5 3 3 3 5 5 5 5 6 4 5 5 5 5 4 4 5 5 5 5 4 3 3 3 3 2 1 6 9 10 11 12 12 12 13 13 14 15 10 7
6 13 5 5 5 5 5 5 8 8 6 5 6 4 5 5 6 6 6 6 3 4 5 5 4 4 4 5 5 4 4 8 9 11 13 14 14 14 14 15 15 16 9
6 6 8 3 3 5 9 6 9 9 8 7 6 6 5 4 6 5 5 7 6 5 5 5 5 5 4 5 5 3 6 8 10 11 12 14 14 15 15 15 15 17 16
7 13 10 8 6 9 8 8 7 8 7 7 7 6 4 4 3 5 6 7 4 4 4 5 5 5 5 6 6 1 8 9 11 13 14 15 16 17 16 15 15 15 17
5 10 10 8 10 7 8 6 5 4 5 5 6 5 4 3 3 3 5 5 7 6 5 8 4 5 6 6 6 5 10 12 11 14 15 16 17 17 17 17 16 15 16
5 8 8 10 6 7 5 2 2 5 5 5 5 4 3 2 2 3 3 4 6 9 9 6 4 5 5 6 8 9 11 13 13 14 16 17 18 18 19 18 17 18 17
8 9 6 4 3 3 2 5 3 6 5 3 3 4 3 2 3 3 4 4 5 8 10 7 5 8 8 8 11 12 13 14 16 17 17 18 19 20 21 21 19 19 18
6 7 6 4 2 3 5 6 7 6 5 4 3 4 5 4 4 4 4 5 6 6 9 8 8 7 11 12 11 11 11 10 10 15 15 16 18 19 21 21 20 20 20
8 9 9 8 7 6 5 5 5 4 4 4 5 4 5 4 6 5 5 7 7 8 7 12 10 9 11 11 13 13 10 10 11 14 15 16 17 18 19 21 21 22 20
11 10 9 7 6 5 4 2 1 3 4 4 4 6 8 7 8 6 7 8 7 7 8 9 9 9 9 10 12 12 12 11 9 13 14 15 15 15 16 17 18 18 19
10 9 8 7 6 5 4 2 1 4 5 6 7 8 8 8 9 10 9 10 10 9 10 8 5 8 12 11 10 10 9 8 7 8 11 13 12 13 16 18 17 15 14
8 8 7 6 5 4 3 3 3 5 7 8 7 8 8 10 13 13 9 11 12 8 5 5 7 9 12 9 8 8 10 9 9 8 9 8 7 6 7 11 12 13 13
8 7 6 5 4 3 6 6 7 8 8 9 9 10 11 12 13 16 18 20 14 7 10 9 9 10 14 9 10 10 9 9 9 7 7 8 4 7 7 7 8 8 11
6 6 6 6 6 6 9 9 9 8 7 8 9 10 10 9 10 11 14 15 16 20 20 16 17 16 13 11 11 10 10 10 10 6 7 8 8 9 7 8 11 11 12
6 6 6 6 6 4 8 8 10 10 8 11 11 11 12 12 12 13 13 14 15 15 12 10 12 13 14 13 11 12 12 11 10 6 7 5 8 9 8 7 14 11 13
5 6 6 6 6 6 7 10 12 10 11 12 11 12 11 13 15 15 11 14 14 14 14 22 23 24 24 23 21 10 8 8 3 4 6 7 7 8 8 8 9 12 11
4 4 6 6 6 8 8 11 12 9 11 9 11 11 13 13 17 17 11 12 13 14 14 12 10 10 14 12 17 13 9 7 7 5 8 9 8 4 6 8 7 6 3
Wind_Direction
170 161 151 154 147 142 140 130 130 124 116 107 107 106 105 100 98 96 94 77 83 85 83 81 79 75 71 68 66 62 61 57 53 50 49 45 44 42 37 37 36 37 37
166 170 161 150 147 150 146 144 137 125 122 113 103 98 103 101 103 106 106 81 68 83 81 77 75 74 70 66 65 61 56 55 53 48 47 45 41 40 35 33 32 31 32
170 165 164 157 151 156 149 143 135 133 126 124 124 116 110 112 110 110 109 111 97 59 70 75 73 70 68 68 62 60 56 51 49 48 45 43 37 36 33 29 26 24 24
172 165 163 159 157 153 153 153 155 149 140 136 138 125 124 123 118 114 115 117 100 105 88 64 64 63 60 58 55 56 54 48 46 44 41 38 38 33 29 26 23 21 17
172 170 163 159 159 162 166 162 156 155 154 148 142 143 143 135 130 142 137 131 100 85 92 87 64 53 53 46 41 43 44 44 39 31 28 28 26 23 23 19 15 15 16
168 180 166 165 165 167 172 175 167 165 161 155 151 153 157 155 168 193 152 161 140 145 107 46 115 87 61 57 47 38 28 19 15 14 11 11 10 10 9 13 9 6 6
150 125 175 171 176 181 180 186 169 156 152 161 153 163 158 200 189 196 200 198 157 176 166 168 107 61 107 78 52 41 27 11 3 355 350 344 343 343 348 350 359 357 357
156 162 155 184 196 183 179 181 185 172 147 191 216 204 196 180 194 196 209 206 207 187 188 188 150 99 76 54 46 31 12 352 340 332 327 326 325 324 323 322 336 343 345
140 92 95 206 215 188 187 194 200 195 173 182 221 252 188 241 175 183 198 201 212 208 201 181 174 138 34 13 302 334 13 343 336 330 328 327 327 326 322 316 308 319 324
115 85 54 24 315 286 187 195 215 209 198 190 200 235 252 302 235 187 204 212 221 211 195 201 218 227 261 297 336 306 336 327 323 321 321 322 321 321 317 315 306 291 293
171 124 96 10 17 343 299 226 221 214 225 226 217 190 222 234 260 274 261 177 236 237 221 234 221 250 273 294 306 308 316 313 315 313 316 315 314 314 313 308 305 298 264
130 161 136 188 271 260 252 249 235 225 221 234 225 227 225 227 231 253 264 250 246 182 220 225 237 253 271 282 286 290 285 301 307 304 306 303 301 304 306 306 299 297 292
179 175 167 188 232 235 239 238 236 230 225 236 229 226 227 218 248 251 270 275 280 231 246 244 250 257 271 273 286 284 281 287 290 297 298 298 299 301 301 299 298 293 294
192 163 176 199 238 245 227 224 233 223 204 220 230 225 213 206 209 234 257 267 251 248 239 275 265 262 273 277 327 291 273 270 277 283 285 285 288 291 291 293 293 289 287
148 156 177 206 208 181 145 73 283 242 217 201 201 198 206 186 197 223 246 256 272 277 273 265 250 275 286 287 297 290 286 289 282 279 279 277 278 282 285 287 288 287 281
145 137 121 116 169 134 118 145 175 223 192 168 179 182 195 191 215 224 247 258 261 272 278 283 265 271 280 285 290 288 285 291 280 274 275 276 275 277 277 278 281 281 277
106 120 127 132 161 153 180 164 190 181 177 167 181 206 215 211 236 235 245 257 262 266 275 280 283 270 276 288 291 289 289 286 282 271 261 267 273 274 274 273 275 276 274
119 134 145 148 143 156 164 166 168 180 184 199 203 225 244 247 248 249 248 258 260 265 264 281 287 291 288 292 294 291 289 285 280 273 276 282 274 271 272 270 268 270 273
99 102 109 113 116 114 112 110 177 208 227 241 231 243 254 253 260 261 256 264 263 260 268 269 280 289 291 291 282 281 282 282 272 274 260 260 265 269 273 276 278 271 267
88 89 88 83 77 74 65 54 282 257 249 253 267 266 272 266 264 270 270 265 265 264 261 271 271 286 285 282 275 290 291 288 304 295 288 268 275 275 270 267 267 264 269
84 81 85 81 73 69 40 338 279 281 278 279 270 269 266 278 292 283 286 278 277 276 276 255 262 261 271 293 286 280 280 283 273 275 272 275 266 269 255 237 252 255 261
76 73 65 54 37 30 16 356 328 305 293 294 295 295 294 288 272 274 277 280 269 233 246 246 250 254 265 263 264 273 268 277 279 278 275 285 281 278 270 273 271 271 274
54 45 38 25 5 0 5 347 336 308 309 297 296 293 290 285 282 277 281 275 272 275 278 284 281 276 280 274 264 266 266 256 259 259 254 266 278 272 281 272 238 254 270
30 21 10 358 346 4 359 347 338 309 304 292 293 293 291 289 285 288 285 281 275 274 285 276 267 267 270 276 273 273 269 275 272 280 285 258 252 264 265 261 271 252 260
3 354 348 336 332 325 4 340 326 309 299 296 297 294 291 293 291 284 278 279 284 278 274 268 264 268 269 266 264 258 255 254 232 228 240 240 251 260 271 268 272 254 261
340 331 334 338 344 317 318 318 318 300 291 299 308 303 291 289 295 294 288 280 279 280 276 277 274 301 302 300 294 281 264 220 237 256 223 248 263 263 273 273 286 304 286